Retour au catalogue

CZ-6A DEB

ActifSSO
NORAD 54916·DEBRIS·🇨🇳 China

Lancé Nov 11, 2022 depuis Taiyuan Satellite Launch Center

Loading…

Prochains Passages (prochaines 24 heures)

TLE

FraisSource: Space-Track

Époque: Sep 13, 2026, 23:40 UTC

1 54916U 22151RD  26256.98644108  .00000331  00000-0  20918-3 0  9997
2 54916  98.8579 256.0201 0051302  95.0022 265.7008 14.10143037194037

Suivez CZ-6A DEB en temps réel avec AllMySat

Download on the App Store